FW6809 Weather Reports


Display with metric or nautical units.
time (UTC)temp
F
wind
direction
speed
MPH
gust
MPH
rain 1hr
in
rain 24hr
in
rain mn
in
humidity
%
barometer
mb
20260502190050 65 323 1.0 11.0 0.00 0.00 0.00 50 1014.2
20260502184557 66 168 1.0 7.0 0.00 0.00 0.00 52 1014.2
20260502183052 66 117 1.0 7.0 0.00 0.00 0.00 55 1014.2
20260502181555 66 96 0.0 3.0 0.00 0.00 0.00 55 1014.2
20260502180105 66 146 0.0 3.0 0.00 0.00 0.00 58 1014.4
20260502163051 63 0 0.0 4.0 0.00 0.00 0.00 66 1014.8
20260502161547 63 357 2.0 6.0 0.00 0.00 0.00 56 1014.9
20260502151553 60 0 0.0 6.0 0.00 0.00 0.00 64 1015.0
20260502123052 50 0 0.0 0.0 0.00 0.00 0.00 89 1014.4
20260502121555 50 0 0.0 0.0 0.00 0.00 0.00 91 1014.1
20260502114552 50 0 0.0 0.0 0.00 0.00 0.00 89 1013.9
20260502113051 50 0 0.0 0.0 0.00 0.00 0.00 88 1014.0
20260502111603 50 0 0.0 0.0 0.00 0.00 0.00 83 1014.0
20260502110052 49 0 0.0 0.0 0.00 0.00 0.00 88 1014.2
20260502104544 49 0 0.0 1.0 0.00 0.00 0.00 89 1013.7
20260502103107 49 0 0.0 0.0 0.00 0.00 0.00 90 1013.8
20260502101605 49 0 0.0 0.0 0.00 0.00 0.00 91 1013.3
20260502070049 52 0 0.0 0.0 0.00 0.00 0.00 94 1014.1
20260502064551 52 0 0.0 0.0 0.00 0.00 0.00 94 1014.3
20260502063048 52 0 0.0 0.0 0.00 0.00 0.00 95 1014.5
20260502061553 52 0 0.0 0.0 0.00 0.00 0.00 96 1014.4
20260502060101 52 0 0.0 0.0 0.00 0.00 0.00 96 1014.6
20260502054600 52 0 0.0 0.0 0.00 0.00 0.00 95 1014.5
20260502053052 52 0 0.0 0.0 0.00 0.00 0.00 95 1014.5
20260502051548 52 0 0.0 0.0 0.00 0.00 0.00 95 1014.6
20260502050054 52 0 0.0 0.0 0.00 0.00 0.00 94 1014.5
20260502044550 52 0 0.0 0.0 0.00 0.00 0.00 95 1014.5
20260502043051 52 0 0.0 0.0 0.00 0.00 0.00 94 1014.7
20260502041546 53 0 0.0 0.0 0.00 0.00 0.00 94 1015.0
20260502040046 53 0 0.0 0.0 0.00 0.00 0.00 94 1015.2
20260502034546 53 0 0.0 0.0 0.00 0.00 0.00 94 1015.3
20260502033049 53 0 0.0 0.0 0.00 0.00 0.00 93 1015.3
20260502031544 53 0 0.0 0.0 0.00 0.00 0.00 93 1015.5
20260502030052 53 0 0.0 0.0 0.00 0.00 0.00 93 1015.6
20260502024555 54 0 0.0 0.0 0.00 0.00 0.00 93 1015.5
20260502023057 54 0 0.0 0.0 0.00 0.00 0.00 93 1015.5
20260502021549 54 0 0.0 0.0 0.00 0.00 0.00 93 1015.5
20260502020052 54 0 0.0 0.0 0.00 0.00 0.00 93 1015.4
20260502014551 55 0 0.0 0.0 0.00 0.00 0.00 93 1015.3
20260502013054 55 0 0.0 0.0 0.00 0.00 0.00 92 1015.0
20260502011549 55 0 0.0 0.0 0.00 0.00 0.00 92 1014.9
20260502010053 56 0 0.0 0.0 0.00 0.00 0.00 91 1014.6
20260502004607 56 0 0.0 0.0 0.00 0.00 0.00 91 1014.3
20260502003052 57 0 0.0 0.0 0.00 0.00 0.00 89 1014.2
20260502001555 57 0 0.0 0.0 0.00 0.00 0.00 88 1014.3
20260502000100 58 0 0.0 0.0 0.00 0.00 0.00 86 1014.3
20260501234557 59 0 0.0 0.0 0.00 0.00 0.00 85 1014.2
20260501233101 60 0 0.0 0.0 0.00 0.00 0.00 82 1014.1
20260501231601 61 0 0.0 0.0 0.00 0.00 0.00 79 1014.1
20260501230057 62 0 0.0 0.0 0.00 0.00 0.00 73 1014.2
20260501224604 62 131 0.0 3.0 0.00 0.00 0.00 68 1013.7
20260501223108 63 0 1.0 4.0 0.00 0.00 0.00 68 1013.7
20260501221548 63 140 1.0 3.0 0.00 0.00 0.00 67 1013.4
20260501214555 63 141 1.0 3.0 0.00 0.00 0.00 64 1014.1
20260501213110 64 143 0.0 4.0 0.00 0.00 0.00 64 1014.2
20260501211553 65 138 0.0 3.0 0.00 0.00 0.00 63 1014.3
20260501210049 65 0 0.0 1.0 0.00 0.00 0.00 65 1014.3
20260501204549 65 0 0.0 1.0 0.00 0.00 0.00 65 1014.9
20260501203048 65 156 0.0 2.0 0.00 0.00 0.00 66 1014.9
20260501201554 65 0 0.0 1.0 0.00 0.00 0.00 67 1015.1
20260501200049 65 151 0.0 2.0 0.00 0.00 0.00 64 1015.2
20260501194556 65 0 0.0 3.0 0.00 0.00 0.00 62 1015.2
20260501193050 65 0 0.0 1.0 0.00 0.00 0.00 62 1015.2
20260501191553 64 0 0.0 3.0 0.00 0.00 0.00 61 1015.4